When you browse on this site, cookies collect data to enhance your experience and personalize the content and advertising you see.
Visit our Privacy Policy to learn more. By continuing to use the site, you agree to this use of cookies and data.
  • En España
  • Lista de países
  • Para 7 días
  • Temperatura del agua
  • El tiempo en el mapa
  • Informadores
  • user-avatar
    Iniciar sesión

    Tiempo cada hora Panguipulli

    Hoy, 24 Enero, Viernes

    Tiempo Temperatura Precipitaciones Viento Presión Humedad
    00:00 +12°C° 0 mm 0 mps 745 mmHg 93%
    01:00 +11°C° 0 mm 0 mps 745 mmHg 97%
    02:00 +11°C° 0 mm 0 mps 745 mmHg 96%
    03:00 +10°C° 0 mm 0 mps 745 mmHg 96%
    04:00 +10°C° 0 mm 0 mps 745 mmHg 96%
    05:00 +12°C° 0 mm 0 mps 745 mmHg 88%
    06:00 +14°C° 0 mm 0 mps 745 mmHg 80%
    07:00 +16°C° 0 mm 0 mps 745 mmHg 71%
    08:00 +20°C° 0 mm 1 mps 745 mmHg 59%
    09:00 +22°C° 0 mm 1 mps 745 mmHg 46%
    10:00 +25°C° 0 mm 2 mps 744 mmHg 34%
    11:00 +26°C° 0 mm 2 mps 744 mmHg 30%
    12:00 +27°C° 0 mm 2 mps 744 mmHg 27%
    13:00 +28°C° 0 mm 2 mps 744 mmHg 23%
    14:00 +28°C° 0 mm 2 mps 744 mmHg 23%
    15:00 +28°C° 0 mm 2 mps 744 mmHg 24%
    16:00 +28°C° 0 mm 2 mps 744 mmHg 25%
    17:00 +25°C° 0 mm 2 mps 744 mmHg 35%
    18:00 +22°C° 0 mm 1 mps 745 mmHg 46%
    19:00 +19°C° 0 mm 1 mps 745 mmHg 56%
    20:00 +18°C° 0 mm 1 mps 745 mmHg 61%
    21:00 +14°C° 0 mm 0 mps 745 mmHg 66%
    22:00 +13°C° 0 mm 0 mps 745 mmHg 71%
    23:00 +12°C° 0 mm 0 mps 745 mmHg 72%

    Mañana, 25 Enero, Sábado

    Tiempo Temperatura Precipitaciones Viento Presión Humedad
    00:00 +12°C° 0 mm 0 mps 745 mmHg 74%
    01:00 +11°C° 0 mm 0 mps 745 mmHg 75%
    02:00 +11°C° 0 mm 0 mps 745 mmHg 76%
    03:00 +11°C° 0 mm 0 mps 745 mmHg 78%
    04:00 +11°C° 0 mm 0 mps 744 mmHg 79%
    05:00 +12°C° 0 mm 0 mps 745 mmHg 73%
    06:00 +14°C° 0 mm 0 mps 745 mmHg 66%
    07:00 +16°C° 0 mm 0 mps 745 mmHg 60%
    08:00 +21°C° 0 mm 1 mps 745 mmHg 55%
    09:00 +23°C° 0 mm 1 mps 744 mmHg 50%
    10:00 +25°C° 0 mm 2 mps 744 mmHg 46%
    11:00 +27°C° 0 mm 2 mps 744 mmHg 43%
    12:00 +28°C° 0 mm 3 mps 744 mmHg 40%
    13:00 +29°C° 0 mm 3 mps 744 mmHg 37%
    14:00 +29°C° 0 mm 3 mps 744 mmHg 39%
    15:00 +28°C° 0 mm 3 mps 744 mmHg 41%
    16:00 +28°C° 0 mm 3 mps 743 mmHg 44%
    17:00 +26°C° 0 mm 2 mps 744 mmHg 52%
    18:00 +24°C° 0 mm 2 mps 744 mmHg 60%
    19:00 +23°C° 0 mm 1 mps 745 mmHg 69%
    20:00 +21°C° 0 mm 1 mps 745 mmHg 77%
    21:00 +19°C° 0 mm 1 mps 745 mmHg 85%
    22:00 +16°C° 0 mm 0 mps 745 mmHg 94%
    23:00 +15°C° 0 mm 0 mps 745 mmHg 95%

    Pasado mañana, 26 Enero, Domingo

    Tiempo Temperatura Precipitaciones Viento Presión Humedad
    00:00 +15°C° 0 mm 0 mps 745 mmHg 97%
    01:00 +14°C° 0 mm 0 mps 745 mmHg 99%
    02:00 +14°C° 0 mm 0 mps 745 mmHg 99%
    03:00 +14°C° 0 mm 0 mps 745 mmHg 98%
    04:00 +14°C° 0 mm 0 mps 745 mmHg 98%
    05:00 +15°C° 0 mm 0 mps 745 mmHg 94%
    06:00 +15°C° 0 mm 0 mps 745 mmHg 90%
    07:00 +16°C° 0 mm 0 mps 745 mmHg 86%
    08:00 +20°C° 0 mm 1 mps 746 mmHg 75%
    09:00 +22°C° 0 mm 1 mps 746 mmHg 63%
    10:00 +24°C° 0 mm 1 mps 746 mmHg 52%
    11:00 +26°C° 0 mm 2 mps 745 mmHg 44%
    12:00 +27°C° 0 mm 2 mps 745 mmHg 35%
    13:00 +29°C° 0 mm 2 mps 745 mmHg 27%
    14:00 +29°C° 0 mm 2 mps 745 mmHg 26%
    15:00 +29°C° 0 mm 3 mps 744 mmHg 25%
    16:00 +29°C° 0 mm 3 mps 744 mmHg 24%
    17:00 +26°C° 0 mm 2 mps 744 mmHg 34%
    18:00 +23°C° 0 mm 1 mps 745 mmHg 43%
    19:00 +21°C° 0 mm 1 mps 745 mmHg 53%
    20:00 +19°C° 0 mm 1 mps 745 mmHg 58%
    21:00 +16°C° 0 mm 1 mps 746 mmHg 63%
    22:00 +14°C° 0 mm 1 mps 746 mmHg 69%
    23:00 +14°C° 0 mm 1 mps 746 mmHg 72%

    27 Enero, Lunes

    Tiempo Temperatura Precipitaciones Viento Presión Humedad
    00:00 +13°C° 0 mm 1 mps 745 mmHg 75%
    01:00 +12°C° 0 mm 1 mps 745 mmHg 78%
    02:00 +12°C° 0 mm 1 mps 745 mmHg 79%
    03:00 +11°C° 0 mm 1 mps 745 mmHg 79%
    04:00 +10°C° 0 mm 1 mps 745 mmHg 80%
    05:00 +11°C° 0 mm 0 mps 744 mmHg 72%
    06:00 +13°C° 0 mm 0 mps 744 mmHg 65%
    07:00 +15°C° 0 mm 0 mps 744 mmHg 58%
    08:00 +20°C° 0 mm 1 mps 744 mmHg 49%
    09:00 +22°C° 0 mm 1 mps 744 mmHg 40%
    10:00 +25°C° 0 mm 2 mps 744 mmHg 32%
    11:00 +26°C° 0 mm 2 mps 743 mmHg 28%
    12:00 +28°C° 0 mm 2 mps 743 mmHg 24%
    13:00 +29°C° 0 mm 2 mps 743 mmHg 21%
    14:00 +29°C° 0 mm 2 mps 743 mmHg 22%
    15:00 +29°C° 0 mm 2 mps 743 mmHg 23%
    16:00 +28°C° 0 mm 2 mps 743 mmHg 25%
    17:00 +26°C° 0 mm 2 mps 743 mmHg 34%
    18:00 +23°C° 0 mm 1 mps 743 mmHg 43%
    19:00 +20°C° 0 mm 1 mps 743 mmHg 52%
    20:00 +19°C° 0 mm 1 mps 743 mmHg 60%
    21:00 +15°C° 0 mm 0 mps 743 mmHg 68%
    22:00 +13°C° 0 mm 0 mps 743 mmHg 75%
    23:00 +13°C° 0 mm 0 mps 743 mmHg 78%

    28 Enero, Martes

    Tiempo Temperatura Precipitaciones Viento Presión Humedad
    00:00 +13°C° 0 mm 0 mps 742 mmHg 81%
    01:00 +12°C° 0 mm 0 mps 742 mmHg 84%
    02:00 +13°C° 0 mm 0 mps 742 mmHg 84%
    03:00 +13°C° 0 mm 0 mps 742 mmHg 84%
    04:00 +13°C° 0 mm 0 mps 742 mmHg 84%
    05:00 +13°C° 0 mm 0 mps 742 mmHg 82%
    06:00 +14°C° 0 mm 0 mps 742 mmHg 81%
    07:00 +15°C° 0 mm 0 mps 742 mmHg 80%
    08:00 +18°C° 0 mm 1 mps 742 mmHg 76%
    09:00 +20°C° 0 mm 1 mps 742 mmHg 72%
    10:00 +21°C° 0 mm 1 mps 742 mmHg 68%
    11:00 +22°C° 0.1 mm 1 mps 742 mmHg 63%
    12:00 +23°C° 0.1 mm 2 mps 741 mmHg 58%
    13:00 +25°C° 0.1 mm 2 mps 741 mmHg 53%
    14:00 +24°C° 0.2 mm 2 mps 741 mmHg 53%
    15:00 +24°C° 0.2 mm 2 mps 741 mmHg 52%
    16:00 +22°C° 0.2 mm 3 mps 741 mmHg 52%
    17:00 +20°C° 0.1 mm 2 mps 741 mmHg 60%
    18:00 +18°C° 0.1 mm 2 mps 742 mmHg 68%
    19:00 +18°C° 0.1 mm 1 mps 742 mmHg 76%
    20:00 +15°C° 0 mm 1 mps 742 mmHg 81%
    21:00 +14°C° 0 mm 1 mps 742 mmHg 86%
    22:00 +12°C° 0 mm 1 mps 743 mmHg 91%
    23:00 +11°C° 0 mm 1 mps 743 mmHg 93%

    29 Enero, Miércoles

    Tiempo Temperatura Precipitaciones Viento Presión Humedad
    00:00 +9°C° 0 mm 0 mps 743 mmHg 94%
    01:00 +8°C° 0 mm 0 mps 743 mmHg 96%
    02:00 +8°C° 0 mm 0 mps 743 mmHg 97%
    03:00 +7°C° 0 mm 0 mps 743 mmHg 98%
    04:00 +7°C° 0 mm 0 mps 743 mmHg 98%
    05:00 +8°C° 0 mm 0 mps 743 mmHg 95%
    06:00 +10°C° 0 mm 1 mps 744 mmHg 91%
    07:00 +10°C° 0 mm 1 mps 744 mmHg 88%
    08:00 +13°C° 0 mm 1 mps 744 mmHg 74%
    09:00 +15°C° 0 mm 2 mps 744 mmHg 59%
    10:00 +17°C° 0 mm 2 mps 744 mmHg 45%
    11:00 +18°C° 0 mm 2 mps 744 mmHg 41%
    12:00 +19°C° 0 mm 3 mps 743 mmHg 37%
    13:00 +21°C° 0 mm 3 mps 743 mmHg 33%
    14:00 +21°C° 0 mm 3 mps 743 mmHg 32%
    15:00 +21°C° 0 mm 3 mps 743 mmHg 32%
    16:00 +21°C° 0 mm 3 mps 743 mmHg 31%
    17:00 +19°C° 0 mm 2 mps 744 mmHg 39%
    18:00 +17°C° 0 mm 2 mps 744 mmHg 46%
    19:00 +15°C° 0 mm 1 mps 745 mmHg 53%
    20:00 +13°C° 0 mm 1 mps 745 mmHg 60%
    21:00 +12°C° 0 mm 1 mps 746 mmHg 67%
    22:00 +10°C° 0 mm 1 mps 746 mmHg 74%
    23:00 +9°C° 0 mm 1 mps 746 mmHg 76%
    Mostrar más